Terminal Aerodrome Forecast
Issued by NWS Riverton, WY

Home | Current Version | Previous Version | Text Only | Print | Product List | Glossary On
Versions: 1 2 3 4 5 6 7 8 9 10 11 12 13 14 15 16 17 18 19 20 21 22 23 24 25 26 27 28
000
FTUS45 KRIW 212324
TAFRIW
TAF
KRIW 212324Z 2200/2224 03013G21KT P6SM -RA BKN030 OVC045
     FM220300 04011KT 6SM -RA OVC018
     FM220900 04006KT 6SM -RA OVC015
     FM221600 VRB05KT P6SM OVC020
     FM222100 06007KT P6SM SCT040 BKN070=

USA.gov is the U.S. government's official web portal to all federal, state and local government web resources and services.